Weather History for KRNP - November, 2013

Change the Weather History Date:

Saturday, November 2, 2013

  Actual Average (KFNT) Record (KFNT)
Temperature  
Mean Temperature 42 °F 44 °F  
Max Temperature 47 °F 53 °F 79 °F (1933)
Min Temperature 37 °F 35 °F 19 °F (2014)
Degree Days  
Heating Degree Days 23 21  
Month to date heating degree days 42  
Since 1 July heating degree days 738  
Cooling Degree Days 0 0  
Month to date cooling degree days 0  
Year to date cooling degree days 531  
Moisture  
Dew Point 41 °F    
Average Humidity 90    
Maximum Humidity 98    
Minimum Humidity 78    
Precipitation  
Precipitation 0.00 in 0.09 in 1.73 in (2003)
Month to date precipitation 0.18  
Year to date precipitation 26.96  
Snow  
Snow 0.00 in 0.00 in 4.80 in (1966)
Month to date snowfall 0.0  
Since 1 July snowfall 0.4  
Since 1 September snowfall 0.4  
Snow Depth -    
Sea Level Pressure  
Sea Level Pressure 29.84 in    
Wind  
Wind Speed 6 mph (NNW)    
Max Wind Speed 13 mph    
Max Gust Speed 16 mph    
Visibility 9 miles    
Events Rain    
T = Trace of Precipitation, MM = Missing Value Source: NWS Daily Summary

Daily Weather History Graph

Daily Weather History Graph

Search for Another Location

Airport or City:

Trip Planner

Search our weather history database for the weather conditions in past years. The results will help you decide how hot, cold, wet, or windy it might be!

Date:

Astronomy

Nov. 02, 2013 Rise Set
Actual Time 8:12 AM EDT 6:26 PM EDT
Civil Twilight 7:43 AM EDT 6:56 PM EDT
Nautical Twilight 7:09 AM EDT 7:30 PM EDT
Astronomical Twilight 6:36 AM EDT 8:03 PM EDT
Moon 7:07 AM EDT (11/2) 5:58 PM EDT (11/2)
Length of Visible Light 11h 13m
Length of Day
10h 14m
Waning Crescent, 1% of the Moon is Illuminated
Nov 2
Waning Crescent
Nov 3
New
Nov 10
First Quarter
Nov 17
Full
Nov 25
Last Quarter

Hourly Weather History & Observations

Time (EDT) Temp. Windchill Dew Point Humidity Pressure Visibility Wind Dir Wind Speed Gust Speed Precip Events Conditions
12:14 AM 46.6 °F - 45.5 °F 96% 29.65 in 7.0 mi SW 3.5 mph - N/A   Drizzle
12:35 AM 46.6 °F - 45.5 °F 96% 29.64 in 7.0 mi WSW 4.6 mph - N/A Rain Rain
12:55 AM 46.6 °F - 45.7 °F 97% 29.64 in 7.0 mi SW 4.6 mph - N/A   Drizzle
1:14 AM 46.6 °F - 45.7 °F 97% 29.64 in 7.0 mi WSW 3.5 mph - N/A   Drizzle
1:35 AM 46.6 °F - 45.9 °F 97% 29.64 in 7.0 mi WSW 3.5 mph - N/A   Drizzle
1:55 AM 46.8 °F - 46.0 °F 97% 29.64 in 7.0 mi WSW 3.5 mph - N/A   Drizzle
2:14 AM 46.8 °F - 46.0 °F 97% 29.64 in 7.0 mi West 5.8 mph - N/A   Drizzle
2:35 AM 47.3 °F - 46.4 °F 97% 29.64 in 7.0 mi West 3.5 mph - N/A   Drizzle
2:55 AM 46.9 °F - 46.4 °F 98% 29.65 in 7.0 mi WNW 5.8 mph - N/A   Drizzle
3:15 AM 46.9 °F - 46.0 °F 97% 29.65 in 10.0 mi NW 4.6 mph - N/A   Drizzle
3:35 AM 46.8 °F - 45.9 °F 97% 29.65 in 7.0 mi WNW 3.5 mph - N/A   Drizzle
3:54 AM 46.4 °F 44.3 °F 45.5 °F 97% 29.65 in 10.0 mi WNW 4.6 mph - N/A   Light Drizzle
4:15 AM 46.4 °F 44.3 °F 45.5 °F 97% 29.65 in 7.0 mi WNW 4.6 mph - N/A   Drizzle
4:35 AM 46.2 °F 44.1 °F 45.3 °F 97% 29.65 in 10.0 mi WNW 4.6 mph - N/A   Drizzle
4:54 AM 46.0 °F 44.8 °F 45.1 °F 97% 29.66 in 10.0 mi WNW 3.5 mph - N/A Rain Rain
5:15 AM 46.4 °F 44.3 °F 45.5 °F 97% 29.66 in 7.0 mi NW 4.6 mph - N/A   Drizzle
5:35 AM 45.9 °F 41.7 °F 44.8 °F 96% 29.67 in 7.0 mi North 8.1 mph - N/A Rain Rain
5:54 AM 43.9 °F 39.9 °F 42.3 °F 94% 29.68 in 10.0 mi NNW 6.9 mph - N/A   Unknown
6:15 AM 43.7 °F 40.3 °F 42.1 °F 94% 29.69 in 5.0 mi NNW 5.8 mph - N/A   Unknown
6:34 AM 43.5 °F 40.9 °F 41.9 °F 94% 29.70 in 10.0 mi NNW 4.6 mph - N/A   Overcast
6:55 AM 43.2 °F 39.7 °F 41.9 °F 95% 29.71 in 7.0 mi North 5.8 mph - N/A   Unknown
7:15 AM 43.2 °F 39.0 °F 41.9 °F 95% 29.72 in 10.0 mi NNW 6.9 mph - N/A   Overcast
7:34 AM 43.0 °F 38.2 °F 41.9 °F 96% 29.73 in 7.0 mi NNW 8.1 mph - N/A   Overcast
7:55 AM 42.8 °F 39.3 °F 41.2 °F 94% 29.73 in 10.0 mi NNW 5.8 mph - N/A   Overcast
8:15 AM 42.8 °F 40.1 °F 41.2 °F 94% 29.74 in 10.0 mi NNW 4.6 mph - N/A   Overcast
8:35 AM 42.8 °F 40.1 °F 41.2 °F 94% 29.75 in 10.0 mi NW 4.6 mph - N/A   Overcast
8:55 AM 42.8 °F 40.1 °F 41.4 °F 95% 29.76 in 10.0 mi NNW 4.6 mph - N/A   Overcast
9:14 AM 43.0 °F 41.3 °F 41.7 °F 95% 29.76 in 10.0 mi NW 3.5 mph - N/A   Overcast
9:35 AM 43.7 °F 40.3 °F 42.4 °F 95% 29.77 in 10.0 mi NW 5.8 mph - N/A   Overcast
9:54 AM 43.9 °F 38.8 °F 42.4 °F 95% 29.78 in 10.0 mi NW 9.2 mph - N/A   Overcast
10:15 AM 43.9 °F 39.3 °F 41.9 °F 93% 29.78 in 10.0 mi NW 8.1 mph - N/A   Mostly Cloudy
10:35 AM 43.9 °F 38.8 °F 41.7 °F 92% 29.79 in 10.0 mi NW 9.2 mph - N/A   Overcast
10:54 AM 43.9 °F 39.9 °F 41.4 °F 91% 29.79 in 10.0 mi NNW 6.9 mph - N/A   Overcast
11:15 AM 44.6 °F 40.2 °F 41.9 °F 90% 29.80 in 10.0 mi NNW 8.1 mph - N/A   Overcast
11:35 AM 44.6 °F 39.2 °F 41.5 °F 89% 29.81 in 10.0 mi North 10.4 mph - N/A   Overcast
11:55 AM 45.1 °F 41.4 °F 41.5 °F 87% 29.82 in 10.0 mi NNW 6.9 mph - N/A   Overcast
12:15 PM 44.8 °F 41.0 °F 41.2 °F 87% 29.83 in 10.0 mi NNW 6.9 mph - N/A   Overcast
12:34 PM 44.8 °F 40.4 °F 41.4 °F 88% 29.84 in 10.0 mi North 8.1 mph - N/A   Overcast
12:55 PM 44.8 °F 40.4 °F 41.5 °F 88% 29.84 in 10.0 mi NNW 8.1 mph - N/A Rain Light Rain
1:15 PM 44.8 °F 39.9 °F 41.4 °F 88% 29.85 in 10.0 mi North 9.2 mph - N/A Rain Rain
1:34 PM 44.6 °F 39.7 °F 41.4 °F 88% 29.85 in 10.0 mi North 9.2 mph - N/A Rain Light Rain
1:55 PM 44.8 °F 38.7 °F 41.9 °F 90% 29.85 in 10.0 mi North 12.7 mph 16.1 mph N/A Rain Light Rain
2:15 PM 44.4 °F 39.5 °F 41.7 °F 90% 29.86 in 10.0 mi North 9.2 mph - N/A   Overcast
2:34 PM 44.2 °F 38.8 °F 41.0 °F 88% 29.87 in 10.0 mi North 10.4 mph - N/A   Light Drizzle
2:55 PM 43.9 °F 38.3 °F 41.0 °F 90% 29.87 in 10.0 mi North 10.4 mph - N/A   Overcast
3:15 PM 44.1 °F 38.1 °F 41.0 °F 89% 29.88 in 10.0 mi North 11.5 mph - N/A   Overcast
3:34 PM 44.2 °F 38.8 °F 40.5 °F 87% 29.89 in 10.0 mi North 10.4 mph - N/A   Overcast
3:55 PM 43.7 °F 38.6 °F 39.7 °F 86% 29.90 in 10.0 mi North 9.2 mph - N/A   Overcast
4:15 PM 44.1 °F 39.0 °F 39.6 °F 84% 29.91 in 10.0 mi North 9.2 mph - N/A   Overcast
4:34 PM 44.1 °F 39.5 °F 39.4 °F 84% 29.92 in 10.0 mi North 8.1 mph - N/A   Overcast
4:55 PM 43.7 °F 38.6 °F 39.2 °F 84% 29.93 in 10.0 mi North 9.2 mph - N/A   Overcast
5:15 PM 44.1 °F 40.1 °F 39.0 °F 82% 29.94 in 10.0 mi North 6.9 mph - N/A   Overcast
5:35 PM 44.2 °F 41.0 °F 38.8 °F 81% 29.95 in 10.0 mi North 5.8 mph - N/A   Overcast
5:55 PM 43.7 °F 39.7 °F 37.4 °F 78% 29.96 in 10.0 mi North 6.9 mph - N/A   Overcast
6:14 PM 43.2 °F 38.4 °F 37.0 °F 79% 29.98 in 10.0 mi NNE 8.1 mph - N/A   Overcast
6:35 PM 43.2 °F 39.0 °F 36.9 °F 78% 29.99 in 10.0 mi NNE 6.9 mph - N/A   Overcast
6:55 PM 42.8 °F 38.6 °F 36.5 °F 78% 29.99 in 10.0 mi NNE 6.9 mph - N/A   Overcast
7:14 PM 41.9 °F 39.0 °F 36.5 °F 81% 30.00 in 10.0 mi NNE 4.6 mph - N/A   Mostly Cloudy
7:35 PM 41.9 °F 39.0 °F 36.7 °F 82% 30.01 in 10.0 mi NNE 4.6 mph - N/A   Overcast
7:55 PM 41.5 °F 38.6 °F 36.7 °F 83% 30.02 in 10.0 mi North 4.6 mph - N/A   Overcast
8:14 PM 41.0 °F 39.0 °F 35.8 °F 82% 30.03 in 10.0 mi NNE 3.5 mph - N/A   Mostly Cloudy
8:35 PM 39.7 °F 37.6 °F 35.1 °F 83% 30.04 in 10.0 mi NNE 3.5 mph - N/A   Scattered Clouds
8:55 PM 38.7 °F - 34.7 °F 86% 30.05 in 10.0 mi Calm Calm - N/A   Clear
9:14 PM 38.3 °F 34.8 °F 34.5 °F 86% 30.06 in 10.0 mi NE 4.6 mph - N/A   Clear
9:35 PM 38.1 °F 35.7 °F 34.2 °F 86% 30.07 in 10.0 mi ENE 3.5 mph - N/A   Scattered Clouds
9:55 PM 38.3 °F 35.9 °F 34.3 °F 86% 30.07 in 10.0 mi ENE 3.5 mph - N/A   Overcast
10:15 PM 38.3 °F 35.9 °F 34.2 °F 85% 30.08 in 10.0 mi ENE 3.5 mph - N/A   Overcast
10:35 PM 38.1 °F 35.7 °F 33.8 °F 84% 30.09 in 10.0 mi NE 3.5 mph - N/A   Mostly Cloudy
10:54 PM 37.6 °F - 33.8 °F 86% 30.09 in 10.0 mi Calm Calm - N/A   Mostly Cloudy
11:15 PM 37.9 °F 34.4 °F 34.0 °F 86% 30.10 in 10.0 mi ENE 4.6 mph - N/A   Overcast
11:35 PM 38.3 °F 35.9 °F 34.0 °F 84% 30.11 in 10.0 mi ENE 3.5 mph - N/A   Overcast
11:54 PM 38.5 °F 34.1 °F 34.0 °F 84% 30.11 in 10.0 mi NE 5.8 mph - N/A   Overcast